Location: Bärenthal
(48.0739°N, 8.9280°E)
Time: 15:25:26
(UTC+00:00)

Daily predictions for brighter satellites

Satellite Brightness Start Highest point End
(mag) Time Altitude Azimuth Time Altitude Azimuth Time Altitude Azimuth
Thor Agena Rocket 3.5 16:28:28 10° SSE 16:33:27 68° ENE 16:38:27 10° N
SPOT 1/Viking Rocket 4.1 16:33:06 10° SE 16:37:41 34° ENE 16:42:18 10° N
IGS 5A 4.1 16:33:55 10° S 16:37:50 59° W 16:41:47 10° NNW
Cosmos 1452 Rocket 3.8 16:32:51 10° S 16:37:53 50° ESE 16:42:58 10° NNE
Cosmos 1980 Rocket 3.8 16:36:53 10° N 16:39:55 15° NE 16:42:57 10° ENE
NOSS 2-1 (C) 4.4 16:38:39 10° NNW 16:41:13 21° NE 16:44:13 10° E
Meteor 1-16 Rocket 4.1 16:36:00 10° N 16:41:18 61° ENE 16:46:40 10° SSE
Cosmos 1484 Rocket 3.5 16:40:07 10° S 16:43:21 49° W 16:46:37 10° NNW
Cosmos 1633 Rocket 3.8 16:40:45 10° NNW 16:44:59 58° W 16:49:13 10° S
Cosmos 332 Rocket 4.1 16:41:19 10° NNW 16:46:06 73° WSW 16:50:52 10° SSE
Cosmos 1821 Rocket 4.0 16:40:40 10° N 16:46:48 60° ENE 16:52:49 10° SSE
BREEZE M DEB (TANK) 4.0 16:45:57 10° W 16:47:51 27° SSW 16:50:43 10° SE
Meteor 1-23 Rocket 4.2 16:44:05 10° S 16:49:43 76° E 16:55:20 10° NNE
Cosmos 1869 Rocket 4.1 16:46:01 10° N 16:50:04 35° ENE 16:54:02 10° SE
SAR-Lupe-1 4.5 16:52:17 10° SE 16:55:38 39° ENE 16:58:59 10° N
DNEPR-1 R/B 3.5 16:51:20 10° SW 16:55:45 86° SE 16:59:59 10° NE
Meteor 1-28 Rocket 3.7 16:53:36 10° N 16:56:49 53° WNW 17:00:01 10° SSW
SJ 16-02 4.5 16:55:00 10° WNW 16:57:33 15° W 17:00:04 10° SW
Landsat 7 3.9 16:53:43 10° SSE 16:58:22 82° WSW 17:03:04 10° NNW
CZ-2D R/B 4.2 16:57:57 10° SE 17:01:11 26° ENE 17:04:25 10° N
Cosmos 1697 Rocket 3.4 16:58:19 10° NNW 17:03:24 33° NE 17:08:27 10° ESE
Resurs 1-3 4.2 16:59:47 10° SE 17:03:37 33° ENE 17:07:29 10° N
CZ-2D R/B 2.6 17:00:53 10° SSE 17:04:00 80° ENE 17:07:08 10° N
Meteor 1-21 4.2 16:59:38 10° S 17:05:14 90° ENE 17:10:53 10° NNE
SMAP 3.7 17:02:04 10° S 17:06:39 60° W 17:11:17 10° NNW
NOSS 2-1 (D) 3.7 17:06:13 10° NNW 17:09:19 36° NE 17:13:09 10° ESE
BREEZE-M DEB (TANK) 3.2 17:04:08 10° W 17:09:29 74° N 17:12:22 16° E
Cosmos 1833 Rocket 3.5 17:06:09 10° SSE 17:10:59 30° ESE 17:15:11 13° NE
SAR-Lupe-4 3.5 17:08:29 10° SSE 17:12:01 64° ENE 17:15:35 10° N
Cosmos 2181 Rocket 4.0 17:05:51 10° S 17:12:01 88° E 17:18:20 10° N
IRS-1C 4.3 17:07:49 10° SSE 17:13:08 81° WSW 17:18:30 10° NNW
Cosmos 1603 4.1 17:08:23 10° SW 17:14:00 66° WNW 17:19:37 10° NNE
USA 267 3.8 17:09:54 13° ENE 17:15:16 43° N 17:21:22 10° WNW
BREEZE-M DEB (TANK) 3.7 17:17:18 10° W 17:20:08 48° SSW 17:29:33 10° SE
Cosmos 1934 Rocket 4.2 17:16:42 10° N 17:22:34 44° ENE 17:28:29 10° SE
ARIANE 5 R/B 3.0 17:17:52 10° S 17:23:02 66° WSW 17:28:14 10° NNW
YAOGAN 1 2.6 17:20:59 10° SSE 17:25:06 51° ENE 17:29:15 10° N
Okean 1-7 4.1 17:25:51 10° SE 17:28:43 21° E 17:28:43 21° E
Okean 2 3.4 17:25:48 10° SSW 17:29:38 74° W 17:33:30 10° N
ATLAS 5 CENTAUR R/B 3.4 17:28:37 10° NW 17:30:14 13° NNW 17:31:56 10° N
SL-16 R/B 3.9 17:25:22 10° N 17:30:55 37° WNW 17:36:28 10° SW
SKYMED 2 3.5 17:27:01 10° NNE 17:31:22 66° ESE 17:35:40 10° S
Cosmos 1707 Rocket 4.4 17:28:31 10° SSE 17:32:08 27° E 17:33:13 24° ENE
Cosmos 2239 Rocket 4.5 17:31:08 10° N 17:37:26 88° ENE 17:43:39 10° S
GRACE-FO 1 4.5 17:37:15 10° N 17:40:42 55° E 17:44:08 10° SSE
GRACE-FO 2 4.5 17:37:40 10° N 17:41:08 56° E 17:44:35 10° SSE
ISS -3.2 17:40:06 10° W 17:43:21 47° N 17:44:16 36° NE
COSMO-SKYMED 1 2.5 17:40:52 15° NNE 17:44:13 55° E 17:48:15 10° S
Okean 3 3.5 17:42:36 10° SSW 17:46:39 73° WNW 17:50:42 10° N
RESURS DK-1 3.2 17:43:11 10° SW 17:47:02 47° NW 17:50:11 15° NNE
USA 276 2.2 17:49:03 10° WNW 17:51:03 45° NNW 17:51:03 45° NNW
Nadezhda 3 Rocket 4.0 17:45:33 10° S 17:51:41 87° W 17:57:54 10° N
Cosmos 1302 Rocket 4.3 17:50:08 10° SSW 17:55:21 67° WNW 18:00:38 10° NNE
OceanSat 1 rocket 4.5 17:51:27 10° SSE 17:56:07 67° ENE 18:00:52 10° N
ATLAS 3B R/B 4.3 17:50:19 10° NW 17:56:39 25° N 18:00:15 19° NE
NOSS 3-4 (A) 4.3 17:51:44 10° WSW 17:56:47 39° NW 18:01:08 16° NNE
NOSS 3-4 (C) 4.2 17:51:52 10° WSW 17:56:57 40° NW 18:01:20 16° NNE
Cosmos 1733 Rocket 2.9 17:53:04 10° N 17:57:26 67° ENE 18:01:45 10° SSE
SJ-7 4.2 17:55:52 10° SSE 17:59:39 84° WSW 18:03:26 10° NNW
Radarsat Rocket 3.9 17:55:25 10° SSE 18:01:33 90° SW 18:07:25 10° NNW
CZ-3 Stage 3 4.4 17:52:57 10° SW 18:02:28 21° SSW 18:06:57 10° SE
Cosmos 2322 Rocket 4.3 18:01:23 10° NNE 18:02:06 11° NNE 18:02:06 11° NNE
SL-19 R/B 4.5 17:58:43 10° SSE 18:04:58 86° ENE 18:11:20 10° NNW
Meteor 2-19 Rocket 4.4 17:59:22 10° S 18:05:22 61° E 18:11:23 10° NNE
Resurs 01 Rocket 1.5 18:01:35 10° SSE 18:05:52 61° ENE 18:10:12 10° N
Cosmos 2333 Rocket 4.1 18:03:34 10° N 18:05:40 14° NNE 18:05:40 14° NNE
CARTOSAT-1 3.3 18:04:33 10° SSE 18:08:46 84° ENE 18:13:00 10° NNW
Cosmos 2228 Rocket 3.2 18:05:07 10° SSE 18:09:10 49° ESE 18:09:10 49° ESE
NOSS 3-1 (A) 4.2 18:04:04 10° NW 18:10:38 49° NE 18:13:44 34° E
SWAS 4.4 18:07:45 10° NNW 18:11:18 54° NNE 18:11:18 54° NNE
USA 59 Rocket 0.5 18:13:28 10° NW 18:16:54 52° SW 18:20:17 16° SSE
PSLV R/B 3.8 18:13:29 10° S 18:17:36 64° WSW 18:21:46 10° NNW
COSMOS 2455 2.7 18:12:06 10° NNW 18:18:10 76° NE 18:21:12 31° SE
Cosmos 1992 Rocket 4.1 18:14:23 10° SSW 18:19:32 73° WNW 18:22:50 23° NNE
USA 215 3.6 18:21:41 40° ESE 18:23:05 45° SE 18:29:17 10° SSW
NOSS 3-1 (C) 3.9 18:16:17 10° NW 18:23:19 88° NE 18:30:21 17° SE
NOAA 6 4.2 18:18:33 10° S 18:23:38 70° WSW 18:28:46 10° NNW
Cosmos 1980 Rocket 2.2 18:19:40 10° NNW 18:25:12 56° ENE 18:25:37 55° ENE
Cosmos 1486 Rocket 3.9 18:20:43 10° NNW 18:26:02 67° ENE 18:26:50 58° ESE
NOSS 2-1 (E) 3.8 18:25:48 10° NW 18:29:14 57° SW 18:29:58 48° S
NOSS 2-1 (C) 4.1 18:26:47 10° NW 18:30:10 48° SW 18:31:37 33° S
IRAS Rocket 4.3 18:25:00 10° SSE 18:30:31 78° WSW 18:36:07 10° NNW
BlueWalker 3 4.3 18:32:36 10° SSW 18:33:08 13° SSW 18:33:08 13° SSW
USA 305 3.7 18:33:26 10° SW 18:35:59 39° SW 18:35:59 39° SW
Cosmos 1605 Rocket 3.9 18:33:06 10° N 18:39:32 90° W 18:45:52 10° S
Cosmos 1697 Rocket 3.5 18:42:06 10° NW 18:47:35 50° WSW 18:53:01 10° S
Cosmos 2082 Rocket 4.2 18:49:23 10° S 18:50:19 15° S 18:50:19 15° S
Cosmos 1833 Rocket 3.4 18:49:11 10° SW 18:54:39 49° NW 18:56:54 32° N
Cosmos 2360 Rocket 4.4 18:51:21 10° N 18:52:15 13° N 18:52:15 13° N
Cosmos 1777 Rocket 4.2 18:51:03 10° NNW 18:55:18 61° NNW 18:55:18 61° NNW
USA 267 3.1 18:57:14 69° ENE 18:57:48 73° NNE 19:04:20 10° NW
Meteor 1-24 Rocket 3.7 18:53:58 10° S 18:59:07 75° SSW 18:59:07 75° SSW
SL-16 R/B 4.0 18:55:15 10° NNW 18:57:12 19° N 18:57:12 19° N
Cosmos 909 Rocket 4.3 18:54:02 10° SW 19:01:34 75° NW 19:03:16 52° NNE
ISS -0.2 19:17:12 10° WNW 19:17:13 10° WNW 19:17:13 10° WNW
BREEZE-M DEB (TANK) 4.5 19:17:30 10° W 19:19:37 43° WNW 19:19:37 43° WNW
Resurs 01 Rocket 4.4 19:40:01 10° SW 19:42:39 16° W 19:45:18 10° NW
ATLAS 3B R/B 4.0 19:42:17 10° NW 19:47:30 34° N 19:47:30 34° N
Cosmos 2333 Rocket 4.5 19:46:38 10° NNW 19:47:41 15° NNW 19:47:41 15° NNW
NOSS 3-1 (A) 4.5 19:54:43 10° NW 20:01:10 57° WSW 20:01:10 57° WSW
USA 215 4.4 20:09:03 38° WSW 20:09:03 38° WSW 20:12:51 10° WSW
Cosmos 1980 Rocket 4.2 20:04:15 10° NW 20:07:26 23° W 20:07:26 23° W
